Location: Gebenbach
(49.5378°N, 11.8735°E)
Time: 05:20:37
(UTC+00:00)

Cosmos 1455 - Pass Details

Date: 29 October 2020
Orbit: 499 x 521 km, 82.5° (Epoch: 25 November)

Event Time Altitude Azimuth Distance (km) Brightness Sun altitude
Rises 17:52:23 0° 189° (S) 2,600 5.9 -19.5°
Reaches altitude 10° 17:54:29 10° 190° (S) 1,724 4.9 -19.9°
Maximum altitude 17:58:16 86° 279° (W) 520 2.1 -20.5°
Drops below altitude 10° 18:02:07 10° 9° (N) 1,753 4.8 -21.1°
Sets 18:04:16 0° 10° (N) 2,649 5.7 -21.5°
